Kayseri, Turkey

1:11 PM +03 on January 19, 2018 (GMT +0300)
Erkilet Air Base

Weather History for LTAU - November, 2013

Change the Weather History Date:

Friday, November 1, 2013

  Actual Average Record
Temperature  
Mean Temperature 50 °F -  
Max Temperature 70 °F 53 °F 70 °F (2012)
Min Temperature 30 °F 29 °F 19 °F (2005)
Degree Days  
Heating Degree Days 15    
Moisture  
Dew Point 29 °F    
Average Humidity 50    
Maximum Humidity 87    
Minimum Humidity 8    
Precipitation  
Precipitation 0.00 in - - ()
Sea Level Pressure  
Sea Level Pressure 30.22 in    
Wind  
Wind Speed 2 mph ()    
Max Wind Speed 7 mph    
Max Gust Speed -    
Visibility 6.6 miles    
Events      
Averages and records for this station are not official NWS values.
T = Trace of Precipitation, MM = Missing Value Source: Averaged Metar Reports

Daily Weather History Graph

Daily Weather History Graph

Search for Another Location

Airport or City:

Trip Planner

Search our weather history database for the weather conditions in past years. The results will help you decide how hot, cold, wet, or windy it might be!

Date:

Astronomy

Nov. 01, 2013 Rise Set
Actual Time 6:05 AM EET 4:37 PM EET
Civil Twilight 5:37 AM EET 5:05 PM EET
Nautical Twilight 5:06 AM EET 5:36 PM EET
Astronomical Twilight 4:35 AM EET 6:07 PM EET
Moon 3:36 AM EET (11/1) 3:17 PM EET (11/1)
Length of Visible Light 11h 27m
Length of Day
10h 32m
Waning Crescent, 6% of the Moon is Illuminated
Nov 1
Waning Crescent
Nov 3
New
Nov 10
First Quarter
Nov 17
Full
Nov 25
Last Quarter

Hourly Weather History & Observations

Time (EET) Temp. Windchill Dew Point Humidity Pressure Visibility Wind Dir Wind Speed Gust Speed Precip Events Conditions
12:20 AM 41.0 °F - 30.2 °F 65% 30.21 in - Variable 2.3 mph - N/A   Clear
12:50 AM 37.4 °F - 32.0 °F 81% 30.21 in - Variable 2.3 mph - N/A   Clear
1:20 AM 39.2 °F - 30.2 °F 70% 30.21 in - Variable 2.3 mph - N/A   Clear
1:50 AM 39.2 °F 35.0 °F 30.2 °F 70% 30.21 in - NNE 5.8 mph - N/A   Clear
2:20 AM 37.4 °F - 30.2 °F 75% 30.21 in - Variable 1.2 mph - N/A   Clear
2:50 AM 39.2 °F 37.0 °F 30.2 °F 70% 30.21 in - ENE 3.5 mph - N/A   Clear
3:20 AM 35.6 °F - 28.4 °F 75% 30.21 in - NE 2.3 mph - N/A   Clear
3:50 AM 37.4 °F - 30.2 °F 75% 30.24 in - ENE 2.3 mph - N/A   Clear
4:20 AM 39.2 °F 35.9 °F 28.4 °F 65% 30.24 in - ENE 4.6 mph - N/A   Clear
4:50 AM 35.6 °F - 28.4 °F 75% 30.24 in - Calm Calm - N/A   Clear
5:20 AM 33.8 °F - 28.4 °F 81% 30.24 in - Variable 1.2 mph - N/A   Clear
5:50 AM 33.8 °F 30.8 °F 26.6 °F 75% 30.24 in - NNE 3.5 mph - N/A   Clear
6:20 AM 32.0 °F - 28.4 °F 87% 30.24 in - NE 1.2 mph - N/A   Clear
6:50 AM 35.6 °F - 28.4 °F 75% 30.27 in - NE 2.3 mph - N/A   Clear
7:20 AM 41.0 °F - 33.8 °F 76% 30.27 in - NE 2.3 mph - N/A   Clear
7:50 AM 46.4 °F - 32.0 °F 57% 30.27 in - Calm Calm - N/A   Clear
8:00 AM 46 °F - 32 °F 47%  in 12 mi Calm Calm - -  
8:20 AM 50.0 °F - 33.8 °F 54% 30.27 in - North 4.6 mph - N/A   Clear
8:50 AM 53.6 °F - 33.8 °F 47% 30.27 in - Variable 2.3 mph - N/A   Clear
9:20 AM 57.2 °F - 32.0 °F 38% 30.27 in - NE 6.9 mph - N/A   Clear
9:50 AM 60.8 °F - 30.2 °F 31% 30.24 in - NE 5.8 mph - N/A   Clear
10:20 AM 60.8 °F - 30.2 °F 31% 30.24 in - NE 5.8 mph - N/A   Clear
10:50 AM 64.4 °F - 30.2 °F 28% 30.24 in - NE 5.8 mph - N/A   Clear
11:20 AM 66.2 °F - 26.6 °F 23% 30.21 in - NNE 6.9 mph - N/A   Clear
11:50 AM 66.2 °F - 28.4 °F 24% 30.21 in - NE 4.6 mph - N/A   Clear
12:20 PM 68.0 °F - 28.4 °F 23% 30.21 in - Variable 1.2 mph - N/A   Clear
12:50 PM 69.8 °F - 24.8 °F 18% 30.18 in - Calm Calm - N/A   Clear
1:20 PM 69.8 °F - 21.2 °F 16% 30.18 in 6.2 mi Variable 2.3 mph - N/A   Partly Cloudy
1:50 PM 69.8 °F - 21.2 °F 16% 30.18 in 6.2 mi Variable 1.2 mph - N/A   Partly Cloudy
2:00 PM 70 °F - 21 °F 8%  in 12 mi North 1.2 mph - -   Scattered Clouds
2:20 PM 69.8 °F - 21.2 °F 16% 30.18 in - NNE 5.8 mph - N/A   Clear
2:50 PM 69.8 °F - 21.2 °F 16% 30.18 in - NE 5.8 mph - N/A   Clear
3:20 PM 69.8 °F - 21.2 °F 16% 30.18 in - Variable 2.3 mph - N/A   Clear
3:50 PM 68.0 °F - 23.0 °F 18% 30.18 in - Calm Calm - N/A   Clear
4:20 PM 64.4 °F - 28.4 °F 26% 30.18 in - Calm Calm - N/A   Clear
4:50 PM 60.8 °F - 28.4 °F 29% 30.18 in - Calm Calm - N/A   Clear
5:20 PM 53.6 °F - 30.2 °F 41% 30.18 in - Calm Calm - N/A   Clear
5:50 PM 57.2 °F - 30.2 °F 36% 30.18 in - Variable 1.2 mph - N/A   Clear
6:20 PM 55.4 °F - 32.0 °F 41% 30.21 in - Variable 1.2 mph - N/A   Clear
6:50 PM 53.6 °F - 32.0 °F 44% 30.21 in 4.3 mi Calm Calm - N/A   Unknown
7:20 PM 51.8 °F - 32.0 °F 47% 30.21 in 3.7 mi Variable 1.2 mph - N/A   Unknown
7:50 PM 46.4 °F - 32.0 °F 57% 30.21 in 5.0 mi Calm Calm - N/A   Unknown
8:00 PM 47 °F - 32 °F 43%  in 5 mi Calm Calm - -   Haze
8:20 PM 42.8 °F 41.1 °F 32.0 °F 66% 30.21 in 5.0 mi NE 3.5 mph - N/A   Unknown
8:50 PM 42.8 °F - 32.0 °F 66% 30.21 in - Calm Calm - N/A   Clear
9:20 PM 44.6 °F 43.1 °F 32.0 °F 61% 30.21 in - NE 3.5 mph - N/A   Clear
9:50 PM 42.8 °F 41.1 °F 30.2 °F 61% 30.21 in - NNE 3.5 mph - N/A   Clear
10:20 PM 41.0 °F - 30.2 °F 65% 30.21 in - Calm Calm - N/A   Clear
10:50 PM 39.2 °F 35.9 °F 30.2 °F 70% 30.21 in - NNE 4.6 mph - N/A   Clear
11:20 PM 39.2 °F - 30.2 °F 70% 30.21 in - ENE 2.3 mph - N/A   Clear
11:50 PM 39.2 °F - 30.2 °F 70% 30.21 in - NNE 1.2 mph - N/A   Clear